Location: Tel Aviv
(32.0670°N, 34.7670°E)
Time: 05:35:08
(UTC+03:00)

Vanguard 2 - Pass Details

Date: 30 January 2022
Orbit: 552 x 2935 km, 32.9° (Epoch: 25 May)

Event Time Altitude Azimuth Distance (km) Brightness Sun altitude
Rises 20:28:47 0° 272° (W) 3,872 12.0 -41.6°
Reaches altitude 10° 20:31:01 10° 273° (W) 3,149 11.3 -42.1°
Enters shadow 20:36:48 58° 279° (W) 1,779 9.3 -43.3°
Maximum altitude 20:39:13 86° 3° (N) 1,720 - -43.8°
Drops below altitude 10° 20:53:18 10° 93° (E) 5,144 - -46.8°
Sets 20:58:00 0° 94° (E) 6,423 - -47.8°
